New Ulm, MN

10:06 PM CST on December 06, 2019 (GMT -0600)
New Ulm Municipal

Weather History for KULM - October, 2019

Change the Weather History Date:

Thursday, October 10, 2019

  Actual Average Record
Temperature  
Mean Temperature 46 °F -  
Max Temperature 57 °F 63 °F 87 °F (1974)
Min Temperature 35 °F 39 °F 23 °F (1964)
Degree Days  
Heating Degree Days 19    
Moisture  
Dew Point 48 °F    
Average Humidity 95    
Maximum Humidity 100    
Minimum Humidity 77    
Precipitation  
Precipitation 0.00 in - - ()
Sea Level Pressure  
Sea Level Pressure 29.81 in    
Wind  
Wind Speed 10 mph ()    
Max Wind Speed 21 mph    
Max Gust Speed 28 mph    
Visibility 6.8 miles    
Events Rain , Thunderstorm    
Averages and records for this station are not official NWS values.
T = Trace of Precipitation, MM = Missing Value Source: Averaged Metar Reports

Daily Weather History Graph

Daily Weather History Graph

Search for Another Location

Airport or City:

Astronomy

Oct. 10, 2019 Rise Set
Actual Time 7:26 AM CDT 6:42 PM CDT
Civil Twilight 6:57 AM CDT 7:11 PM CDT
Nautical Twilight 6:23 AM CDT 7:45 PM CDT
Astronomical Twilight 5:50 AM CDT 8:19 PM CDT
Moon 5:53 PM CDT (10/10) 4:00 AM CDT (10/10)
Length of Visible Light 12h 14m
Length of Day
11h 16m
Waxing Gibbous, 91% of the Moon is Illuminated
Oct 10
Waxing Gibbous
Oct 13
Full
Oct 21
Last Quarter
Oct 27
New
Nov 4
First Quarter

Hourly Weather History & Observations

Time (CDT) Temp. Windchill Dew Point Humidity Pressure Visibility Wind Dir Wind Speed Gust Speed Precip Events Conditions
12:15 AM 55.4 °F - 48.2 °F 77% 29.94 in 10.0 mi SSE 13.8 mph 27.6 mph N/A   Overcast
12:35 AM 53.6 °F - 50.0 °F 88% 29.94 in 7.0 mi SE 13.8 mph 19.6 mph N/A Rain Light Rain
12:36 AM 53.6 °F - 51.8 °F 94% 29.94 in 7.0 mi SE 13.8 mph 18.4 mph N/A Rain Light Rain
12:55 AM 53.6 °F - 51.8 °F 94% 29.93 in 5.0 mi SE 13.8 mph - N/A Rain Rain
1:15 AM 53.6 °F - 51.8 °F 94% 29.93 in 10.0 mi SE 11.5 mph - N/A Rain Light Rain
1:16 AM 53.6 °F - 51.8 °F 94% 29.93 in 10.0 mi SE 11.5 mph - N/A Rain Light Rain
1:35 AM 53.6 °F - 51.8 °F 94% 29.94 in 10.0 mi SE 9.2 mph - N/A Rain Rain
1:55 AM 53.6 °F - 51.8 °F 94% - 10.0 mi SE 11.5 mph - N/A Rain Light Rain
1:56 AM 53.6 °F - 51.8 °F 94% 29.94 in 10.0 mi SE 12.7 mph - N/A Rain Light Rain
2:15 AM 53.6 °F - 51.8 °F 94% 29.93 in 7.0 mi SE 6.9 mph - N/A   Light Drizzle
2:36 AM 51.8 °F - 51.8 °F 100% 29.92 in 5.0 mi ESE 11.5 mph - N/A Rain Light Rain
2:55 AM 51.8 °F - 51.8 °F 100% 29.91 in 5.0 mi ESE 6.9 mph - N/A   Light Drizzle
3:15 AM 51.8 °F - 51.8 °F 100% 29.90 in 5.0 mi ESE 9.2 mph - N/A   Overcast
3:55 AM 51.8 °F - 50.0 °F 94% 29.88 in 7.0 mi East 5.8 mph - N/A   Overcast
3:56 AM 51.8 °F - 50.0 °F 94% 29.88 in 7.0 mi East 5.8 mph - N/A   Overcast
4:15 AM 51.8 °F - 50.0 °F 94% 29.88 in 10.0 mi ESE 6.9 mph - N/A   Overcast
4:16 AM 51.8 °F - 50.0 °F 94% 29.88 in 10.0 mi ESE 6.9 mph - N/A   Overcast
4:35 AM 51.8 °F - 50.0 °F 94% 29.88 in 10.0 mi East 5.8 mph - N/A   Overcast
4:55 AM 51.8 °F - 50.0 °F 94% 29.88 in 10.0 mi ESE 6.9 mph - N/A   Overcast
4:56 AM 51.8 °F - 50.0 °F 94% 29.88 in 10.0 mi ESE 6.9 mph - N/A   Overcast
5:15 AM 51.8 °F - 50.0 °F 94% 29.88 in 10.0 mi ESE 6.9 mph - N/A   Overcast
5:35 AM 51.8 °F - 51.8 °F 100% 29.87 in 5.0 mi ESE 8.1 mph - N/A   Drizzle
5:55 AM 51.8 °F - 51.8 °F 100% 29.88 in 5.0 mi SE 6.9 mph - N/A   Drizzle
6:15 AM 51.8 °F - 51.8 °F 100% 29.86 in 10.0 mi ESE 5.8 mph - N/A   Light Drizzle
6:16 AM 51.8 °F - 51.8 °F 100% 29.86 in 10.0 mi ESE 5.8 mph - N/A   Light Drizzle
6:35 AM 51.8 °F - 51.8 °F 100% 29.85 in 10.0 mi ESE 4.6 mph - N/A   Overcast
6:55 AM 51.8 °F - 51.8 °F 100% 29.84 in 10.0 mi East 5.8 mph - N/A   Overcast
7:15 AM 53.6 °F - 51.8 °F 94% 29.84 in 10.0 mi ESE 4.6 mph - N/A   Overcast
7:16 AM 53.6 °F - 51.8 °F 94% 29.84 in 10.0 mi ESE 4.6 mph - N/A   Overcast
7:35 AM 53.6 °F - 51.8 °F 94% 29.84 in 10.0 mi East 4.6 mph - N/A   Overcast
7:56 AM 53.6 °F - 51.8 °F 94% 29.84 in 10.0 mi East 4.6 mph - N/A   Overcast
8:15 AM 53.6 °F - 51.8 °F 94% 29.85 in 10.0 mi ESE 3.5 mph - N/A   Overcast
8:35 AM 53.6 °F - 51.8 °F 94% 29.86 in 10.0 mi East 4.6 mph - N/A   Overcast
8:55 AM 53.6 °F - 51.8 °F 94% 29.86 in 10.0 mi ESE 5.8 mph - N/A   Overcast
8:56 AM 53.6 °F - 51.8 °F 94% 29.86 in 10.0 mi ESE 5.8 mph - N/A   Overcast
9:15 AM 53.6 °F - 51.8 °F 94% 29.85 in 5.0 mi ESE 6.9 mph - N/A Rain Rain
9:35 AM 53.6 °F - 51.8 °F 94% 29.85 in 10.0 mi ESE 10.4 mph - N/A Rain Light Rain
9:55 AM 53.6 °F - 51.8 °F 94% 29.84 in 10.0 mi ESE 6.9 mph - N/A   Overcast
10:15 AM 53.6 °F - 51.8 °F 94% 29.85 in 10.0 mi SE 9.2 mph - N/A   Overcast
10:35 AM 55.4 °F - 53.6 °F 94% 29.84 in 10.0 mi ESE 8.1 mph - N/A   Overcast
10:55 AM 55.4 °F - 53.6 °F 94% 29.84 in 10.0 mi ESE 6.9 mph - N/A   Overcast
10:56 AM 55.4 °F - 53.6 °F 94% 29.84 in 10.0 mi ESE 6.9 mph - N/A   Overcast
11:15 AM 55.4 °F - 53.6 °F 94% 29.83 in 10.0 mi ESE 6.9 mph - N/A   Overcast
11:16 AM 55.4 °F - 53.6 °F 94% 29.83 in 10.0 mi ESE 6.9 mph - N/A   Overcast
11:35 AM 55.4 °F - 53.6 °F 94% 29.82 in 10.0 mi ESE 5.8 mph - N/A   Overcast
11:36 AM 55.4 °F - 53.6 °F 94% 29.82 in 10.0 mi ESE 5.8 mph - N/A   Overcast
11:55 AM 55.4 °F - 53.6 °F 94% 29.81 in 10.0 mi SE 5.8 mph - N/A   Overcast
12:15 PM 55.4 °F - 53.6 °F 94% 29.80 in 10.0 mi ESE 8.1 mph - N/A   Overcast
12:35 PM 57.2 °F - 55.4 °F 94% 29.78 in 10.0 mi East 8.1 mph - N/A   Mostly Cloudy
12:55 PM 57.2 °F - 55.4 °F 94% 29.77 in 10.0 mi ESE 10.4 mph - N/A   Overcast
12:56 PM 57.2 °F - 55.4 °F 94% 29.77 in 10.0 mi ESE 11.5 mph - N/A   Overcast
1:15 PM 57.2 °F - 55.4 °F 94% 29.76 in 10.0 mi ESE 8.1 mph - N/A   Overcast
1:35 PM 57.2 °F - 55.4 °F 94% 29.75 in 10.0 mi ESE 10.4 mph - N/A   Overcast
1:36 PM 57.2 °F - 55.4 °F 94% 29.75 in 10.0 mi ESE 9.2 mph - N/A   Overcast
2:15 PM 57.2 °F - 55.4 °F 94% 29.73 in 10.0 mi ESE 13.8 mph - N/A   Overcast
2:35 PM 57.2 °F - 55.4 °F 94% 29.73 in 10.0 mi ESE 10.4 mph - N/A   Overcast
2:55 PM 57.2 °F - 55.4 °F 94% 29.72 in 4.0 mi SE 8.1 mph - N/A Rain Light Rain
2:56 PM 57.2 °F - 55.4 °F 94% 29.72 in 4.0 mi SE 9.2 mph - N/A Rain Light Rain
3:15 PM 57.2 °F - 55.4 °F 94% 29.72 in 7.0 mi SE 8.1 mph - N/A   Overcast
3:16 PM 57.2 °F - 55.4 °F 94% 29.72 in 7.0 mi SE 8.1 mph - N/A   Overcast
3:35 PM 57.2 °F - 55.4 °F 94% 29.72 in 7.0 mi South 6.9 mph - N/A   Overcast
3:55 PM 51.8 °F - 48.2 °F 88% 29.72 in 1.2 mi West 13.8 mph - N/A   Drizzle
3:56 PM 51.8 °F - 48.2 °F 88% 29.72 in 1.2 mi West 15.0 mph - N/A   Drizzle
4:15 PM 46.4 °F 40.1 °F 46.4 °F 100% 29.73 in 1.8 mi West 15.0 mph - N/A   Heavy Drizzle
4:16 PM 46.4 °F 39.5 °F 46.4 °F 100% 29.73 in 1.5 mi WNW 17.3 mph 20.7 mph N/A   Heavy Drizzle
4:35 PM 46.4 °F 41.1 °F 44.6 °F 93% 29.73 in 3.0 mi WNW 11.5 mph - N/A   Light Drizzle
4:55 PM 44.6 °F 38.1 °F 44.6 °F 100% 29.74 in 2.0 mi West 13.8 mph - N/A   Overcast
5:15 PM 44.6 °F 38.8 °F 42.8 °F 93% 29.74 in 1.8 mi West 11.5 mph - N/A   Overcast
5:35 PM 42.8 °F 36.6 °F 42.8 °F 100% 29.74 in 1.5 mi West 11.5 mph 18.4 mph N/A   Overcast
5:36 PM 42.8 °F 36.2 °F 42.8 °F 100% 29.74 in 1.5 mi West 12.7 mph 18.4 mph N/A   Overcast
5:55 PM 42.8 °F 36.2 °F 41.0 °F 93% 29.75 in 2.0 mi West 12.7 mph - N/A   Overcast
6:15 PM 41.0 °F 32.8 °F 39.2 °F 93% 29.75 in 2.5 mi WNW 16.1 mph - N/A   Overcast
6:16 PM 41.0 °F 32.5 °F 39.2 °F 93% 29.75 in 2.5 mi WNW 17.3 mph - N/A   Overcast
6:35 PM 39.2 °F 30.5 °F 39.2 °F 100% 29.76 in 3.0 mi WNW 16.1 mph - N/A   Overcast
6:55 PM 39.2 °F 31.2 °F 39.2 °F 100% 29.76 in 3.0 mi WNW 13.8 mph - N/A   Overcast
6:56 PM 39.2 °F 31.2 °F 39.2 °F 100% 29.76 in 3.0 mi WNW 13.8 mph - N/A   Overcast
7:15 PM 39.2 °F 31.6 °F 37.4 °F 93% 29.77 in 2.5 mi WNW 12.7 mph 17.3 mph N/A   Overcast
7:35 PM 39.2 °F 31.2 °F 37.4 °F 93% 29.76 in 2.5 mi WNW 13.8 mph 19.6 mph N/A   Overcast
7:55 PM 39.2 °F 31.2 °F 37.4 °F 93% 29.77 in 2.5 mi WNW 13.8 mph - N/A   Overcast
7:56 PM 39.2 °F 30.8 °F 37.4 °F 93% 29.77 in 3.0 mi WNW 15.0 mph - N/A   Overcast
8:15 PM 39.2 °F 30.2 °F 37.4 °F 93% 29.77 in 3.0 mi West 17.3 mph - N/A   Overcast
8:35 PM 39.2 °F 30.8 °F 37.4 °F 93% 29.77 in 2.5 mi West 15.0 mph 21.9 mph N/A   Overcast
8:55 PM 37.4 °F 27.8 °F 37.4 °F 100% 29.78 in 2.5 mi WNW 17.3 mph 23.0 mph N/A   Overcast
8:56 PM 37.4 °F 28.5 °F 37.4 °F 100% 29.78 in 2.5 mi WNW 15.0 mph 23.0 mph N/A   Overcast
9:15 PM 37.4 °F 27.5 °F 37.4 °F 100% 29.78 in 2.5 mi WNW 18.4 mph 25.3 mph N/A   Overcast
9:16 PM 37.4 °F 27.8 °F 37.4 °F 100% 29.78 in 2.5 mi WNW 17.3 mph 25.3 mph N/A   Overcast
9:35 PM 37.4 °F 28.9 °F 37.4 °F 100% 29.79 in 4.0 mi West 13.8 mph 18.4 mph N/A   Overcast
9:55 PM 37.4 °F 26.9 °F 35.6 °F 93% 29.78 in 3.0 mi WNW 20.7 mph 25.3 mph N/A Thunderstorm Overcast
9:56 PM 37.4 °F 27.2 °F 35.6 °F 93% 29.78 in 3.0 mi WNW 19.6 mph 25.3 mph N/A Thunderstorm Overcast
10:15 PM 37.4 °F 27.8 °F 35.6 °F 93% 29.78 in 5.0 mi WNW 17.3 mph 23.0 mph N/A   Overcast
10:16 PM 37.4 °F 27.5 °F 35.6 °F 93% 29.78 in 5.0 mi WNW 18.4 mph 23.0 mph N/A   Overcast
10:35 PM 37.4 °F 28.5 °F 35.6 °F 93% 29.78 in 7.0 mi West 15.0 mph 20.7 mph N/A Thunderstorm Overcast
10:55 PM 37.4 °F 28.2 °F 35.6 °F 93% 29.79 in 5.0 mi WNW 16.1 mph 24.2 mph N/A Rain , Thunderstorm Thunderstorms and Rain
11:15 PM 35.6 °F 26.6 °F 35.6 °F 100% 29.80 in 5.0 mi West 13.8 mph - N/A Rain , Thunderstorm Thunderstorms and Rain
11:35 PM 35.6 °F 25.9 °F 35.6 °F 100% 29.80 in 10.0 mi West 16.1 mph 23.0 mph N/A Rain Rain
11:36 PM 35.6 °F 26.6 °F 35.6 °F 100% 29.80 in 10.0 mi West 13.8 mph 23.0 mph N/A Rain Rain
11:55 PM 35.6 °F 25.9 °F 33.8 °F 93% 29.80 in 10.0 mi West 16.1 mph 20.7 mph N/A   Overcast